| time (UTC) | temp F | wind direction | speed MPH | gust MPH | rain 1hr in | rain 24hr in | rain mn in | humidity % | barometer mb |
| 20260505223107 | 73 | 230 | 10.0 | 11.0 | 0.00 | 0.00 | 0.00 | 31 | 1003.8 |
| 20260505222603 | 73 | 242 | 6.0 | 10.0 | 0.00 | 0.00 | 0.00 | 31 | 1004.0 |
| 20260505222059 | 73 | 224 | 8.0 | 11.0 | 0.00 | 0.00 | 0.00 | 31 | 1004.0 |
| 20260505221557 | 73 | 214 | 8.0 | 13.0 | 0.00 | 0.00 | 0.00 | 31 | 1004.0 |
| 20260505221053 | 72 | 246 | 13.0 | 18.0 | 0.00 | 0.00 | 0.00 | 32 | 1004.3 |
| 20260505220550 | 72 | 218 | 12.0 | 17.0 | 0.00 | 0.00 | 0.00 | 31 | 1004.3 |
| 20260505220048 | 72 | 245 | 15.0 | 19.0 | 0.00 | 0.00 | 0.00 | 32 | 1004.4 |
| 20260505215546 | 72 | 198 | 8.0 | 15.0 | 0.00 | 0.00 | 0.00 | 32 | 1004.5 |
| 20260505215044 | 72 | 228 | 10.0 | 11.0 | 0.00 | 0.00 | 0.00 | 33 | 1004.3 |
| 20260505214542 | 72 | 225 | 13.0 | 15.0 | 0.00 | 0.00 | 0.00 | 32 | 1004.4 |
| 20260505214038 | 71 | 227 | 10.0 | 11.0 | 0.00 | 0.00 | 0.00 | 33 | 1004.6 |
| 20260505213536 | 72 | 234 | 9.0 | 10.0 | 0.00 | 0.00 | 0.00 | 32 | 1004.6 |
| 20260505213032 | 71 | 245 | 11.0 | 17.0 | 0.00 | 0.00 | 0.00 | 33 | 1004.7 |
| 20260505212528 | 72 | 255 | 14.0 | 16.0 | 0.00 | 0.00 | 0.00 | 33 | 1005.0 |
| 20260505212026 | 71 | 240 | 14.0 | 19.0 | 0.00 | 0.00 | 0.00 | 33 | 1004.8 |
| 20260505211523 | 71 | 268 | 10.0 | 12.0 | 0.00 | 0.00 | 0.00 | 34 | 1004.8 |
| 20260505211019 | 71 | 248 | 9.0 | 15.0 | 0.00 | 0.00 | 0.00 | 33 | 1005.3 |
| 20260505210516 | 71 | 214 | 12.0 | 12.0 | 0.00 | 0.00 | 0.00 | 33 | 1005.3 |
| 20260505210014 | 70 | 186 | 5.0 | 17.0 | 0.00 | 0.00 | 0.00 | 34 | 1005.0 |
| 20260505205512 | 70 | 239 | 4.0 | 13.0 | 0.00 | 0.00 | 0.00 | 35 | 1005.3 |
| 20260505205008 | 70 | 271 | 6.0 | 10.0 | 0.00 | 0.00 | 0.00 | 35 | 1006.0 |
| 20260505204506 | 71 | 269 | 7.0 | 12.0 | 0.00 | 0.00 | 0.00 | 34 | 1005.7 |
| 20260505204003 | 69 | 206 | 3.0 | 16.0 | 0.00 | 0.00 | 0.00 | 35 | 1006.1 |
| 20260505203459 | 70 | 259 | 15.0 | 16.0 | 0.00 | 0.00 | 0.00 | 35 | 1006.0 |
| 20260505202956 | 70 | 275 | 11.0 | 13.0 | 0.00 | 0.00 | 0.00 | 35 | 1006.2 |
| 20260505202453 | 69 | 254 | 21.0 | 23.0 | 0.00 | 0.00 | 0.00 | 36 | 1006.3 |
| 20260505201948 | 69 | 267 | 23.0 | 28.0 | 0.00 | 0.00 | 0.00 | 35 | 1006.3 |
| 20260505201446 | 69 | 254 | 24.0 | 38.0 | 0.00 | 0.00 | 0.00 | 37 | 1006.3 |
| 20260505200943 | 70 | 256 | 25.0 | 29.0 | 0.00 | 0.00 | 0.00 | 34 | 1006.5 |
| 20260505200441 | 70 | 256 | 19.0 | 20.0 | 0.00 | 0.00 | 0.00 | 32 | 1006.4 |
| 20260505195936 | 69 | 242 | 12.0 | 13.0 | 0.00 | 0.00 | 0.00 | 32 | 1006.2 |
| 20260505195434 | 69 | 236 | 10.0 | 16.0 | 0.00 | 0.00 | 0.00 | 32 | 1006.4 |
| 20260505194931 | 71 | 255 | 7.0 | 14.0 | 0.00 | 0.00 | 0.00 | 30 | 1006.3 |
| 20260505194428 | 70 | 220 | 12.0 | 12.0 | 0.00 | 0.00 | 0.00 | 31 | 1006.3 |
| 20260505193928 | 70 | 326 | 6.0 | 7.0 | 0.00 | 0.00 | 0.00 | 31 | 1006.4 |
| 20260505193426 | 69 | 31 | 2.0 | 7.0 | 0.00 | 0.00 | 0.00 | 32 | 1006.2 |
| 20260505192924 | 69 | 232 | 0.0 | 7.0 | 0.00 | 0.00 | 0.00 | 32 | 1006.5 |
| 20260505192422 | 71 | 117 | 7.0 | 8.0 | 0.00 | 0.00 | 0.00 | 31 | 1006.4 |
| 20260505191919 | 69 | 25 | 4.0 | 6.0 | 0.00 | 0.00 | 0.00 | 31 | 1006.4 |
| 20260505191418 | 69 | 78 | 9.0 | 10.0 | 0.00 | 0.00 | 0.00 | 32 | 1006.9 |
| 20260505190914 | 69 | 99 | 11.0 | 14.0 | 0.00 | 0.00 | 0.00 | 32 | 1006.7 |
| 20260505190409 | 68 | 96 | 11.0 | 11.0 | 0.00 | 0.00 | 0.00 | 32 | 1006.7 |
| 20260505185905 | 69 | 118 | 11.0 | 14.0 | 0.00 | 0.00 | 0.00 | 32 | 1006.6 |
| 20260505185402 | 68 | 326 | 5.0 | 11.0 | 0.00 | 0.00 | 0.00 | 32 | 1006.9 |
| 20260505184858 | 70 | 80 | 12.0 | 23.0 | 0.00 | 0.00 | 0.00 | 32 | 1006.6 |
| 20260505184355 | 68 | 284 | 3.0 | 10.0 | 0.00 | 0.00 | 0.00 | 32 | 1007.1 |
| 20260505183852 | 67 | 22 | 8.0 | 15.0 | 0.00 | 0.00 | 0.00 | 34 | 1007.0 |
| 20260505183349 | 68 | 69 | 12.0 | 15.0 | 0.00 | 0.00 | 0.00 | 33 | 1007.0 |
| 20260505182846 | 66 | 72 | 4.0 | 11.0 | 0.00 | 0.00 | 0.00 | 35 | 1007.2 |
| 20260505182343 | 67 | 117 | 14.0 | 15.0 | 0.00 | 0.00 | 0.00 | 34 | 1007.0 |
| 20260505181839 | 66 | 118 | 13.0 | 14.0 | 0.00 | 0.00 | 0.00 | 34 | 1007.2 |
| 20260505181336 | 66 | 50 | 4.0 | 8.0 | 0.00 | 0.00 | 0.00 | 34 | 1007.4 |
| 20260505180833 | 66 | 43 | 11.0 | 13.0 | 0.00 | 0.00 | 0.00 | 35 | 1007.3 |
| 20260505180330 | 67 | 25 | 6.0 | 9.0 | 0.00 | 0.00 | 0.00 | 34 | 1007.5 |
| 20260505175826 | 65 | 70 | 7.0 | 9.0 | 0.00 | 0.00 | 0.00 | 36 | 1007.7 |
| 20260505175323 | 65 | 21 | 5.0 | 9.0 | 0.00 | 0.00 | 0.00 | 36 | 1007.3 |
| 20260505174819 | 66 | 27 | 8.0 | 10.0 | 0.00 | 0.00 | 0.00 | 35 | 1007.5 |
| 20260505174317 | 64 | 80 | 10.0 | 11.0 | 0.00 | 0.00 | 0.00 | 37 | 1007.7 |
| 20260505173812 | 64 | 11 | 9.0 | 9.0 | 0.00 | 0.00 | 0.00 | 37 | 1007.8 |
| 20260505173309 | 63 | 56 | 7.0 | 7.0 | 0.00 | 0.00 | 0.00 | 38 | 1007.8 |
| 20260505172806 | 63 | 344 | 5.0 | 11.0 | 0.00 | 0.00 | 0.00 | 38 | 1007.7 |
| 20260505172306 | 64 | 11 | 5.0 | 13.0 | 0.00 | 0.00 | 0.00 | 37 | 1007.8 |
| 20260505171758 | 64 | 64 | 5.0 | 15.0 | 0.00 | 0.00 | 0.00 | 38 | 1007.7 |
| 20260505171255 | 63 | 306 | 7.0 | 13.0 | 0.00 | 0.00 | 0.00 | 38 | 1007.7 |
| 20260505170752 | 64 | 8 | 14.0 | 15.0 | 0.00 | 0.00 | 0.00 | 38 | 1007.9 |
| 20260505170249 | 63 | 9 | 9.0 | 13.0 | 0.00 | 0.00 | 0.00 | 38 | 1007.8 |
| 20260505165744 | 63 | 54 | 5.0 | 11.0 | 0.00 | 0.00 | 0.00 | 38 | 1007.5 |
| 20260505165240 | 63 | 334 | 8.0 | 10.0 | 0.00 | 0.00 | 0.00 | 39 | 1007.7 |
| 20260505164736 | 63 | 358 | 9.0 | 13.0 | 0.00 | 0.00 | 0.00 | 39 | 1007.5 |
| 20260505164233 | 62 | 276 | 2.0 | 13.0 | 0.00 | 0.00 | 0.00 | 40 | 1007.5 |
| 20260505163731 | 64 | 7 | 11.0 | 16.0 | 0.00 | 0.00 | 0.00 | 38 | 1007.8 |
| 20260505163230 | 62 | 352 | 8.0 | 12.0 | 0.00 | 0.00 | 0.00 | 40 | 1007.8 |
| 20260505162726 | 63 | 20 | 5.0 | 11.0 | 0.00 | 0.00 | 0.00 | 40 | 1007.7 |
| 20260505162223 | 62 | 28 | 6.0 | 11.0 | 0.00 | 0.00 | 0.00 | 41 | 1007.9 |
| 20260505161720 | 62 | 15 | 5.0 | 11.0 | 0.00 | 0.00 | 0.00 | 41 | 1008.0 |
| 20260505161218 | 60 | 59 | 15.0 | 15.0 | 0.00 | 0.00 | 0.00 | 44 | 1007.9 |
| 20260505160715 | 60 | 7 | 11.0 | 14.0 | 0.00 | 0.00 | 0.00 | 43 | 1008.0 |
| 20260505160213 | 61 | 36 | 7.0 | 11.0 | 0.00 | 0.00 | 0.00 | 44 | 1007.8 |
| 20260505153152 | 59 | 50 | 12.0 | 13.0 | 0.00 | 0.00 | 0.00 | 46 | 1007.7 |
| 20260505152649 | 58 | 69 | 10.0 | 17.0 | 0.00 | 0.00 | 0.00 | 48 | 1008.0 |
| 20260505152144 | 58 | 70 | 7.0 | 11.0 | 0.00 | 0.00 | 0.00 | 48 | 1007.9 |
| 20260505151640 | 57 | 22 | 11.0 | 14.0 | 0.00 | 0.00 | 0.00 | 49 | 1008.1 |
| 20260505151138 | 58 | 358 | 12.0 | 17.0 | 0.00 | 0.00 | 0.00 | 49 | 1008.1 |
| 20260505150633 | 57 | 54 | 11.0 | 15.0 | 0.00 | 0.00 | 0.00 | 49 | 1007.9 |
| 20260505150131 | 57 | 14 | 11.0 | 15.0 | 0.00 | 0.00 | 0.00 | 49 | 1007.7 |
| 20260505140559 | 55 | 2 | 14.0 | 19.0 | 0.00 | 0.00 | 0.00 | 56 | 1007.0 |
| 20260505125013 | 56 | 37 | 5.0 | 15.0 | 0.00 | 0.00 | 0.00 | 55 | 1006.2 |
| 20260505124509 | 56 | 26 | 12.0 | 14.0 | 0.00 | 0.00 | 0.00 | 54 | 1006.2 |
| 20260505124006 | 57 | 0 | 11.0 | 16.0 | 0.00 | 0.00 | 0.00 | 54 | 1006.0 |
| 20260505123502 | 57 | 10 | 13.0 | 18.0 | 0.00 | 0.00 | 0.00 | 53 | 1005.6 |
| 20260505122958 | 57 | 2 | 14.0 | 17.0 | 0.00 | 0.00 | 0.00 | 52 | 1005.6 |
| 20260505122455 | 58 | 26 | 9.0 | 15.0 | 0.00 | 0.00 | 0.00 | 51 | 1005.6 |
| 20260505121952 | 58 | 32 | 9.0 | 17.0 | 0.00 | 0.00 | 0.00 | 49 | 1005.6 |
| 20260505121449 | 59 | 27 | 11.0 | 16.0 | 0.00 | 0.00 | 0.00 | 47 | 1005.7 |
| 20260505120945 | 59 | 19 | 11.0 | 18.0 | 0.00 | 0.00 | 0.00 | 46 | 1005.2 |
| 20260505120442 | 59 | 20 | 11.0 | 15.0 | 0.00 | 0.00 | 0.00 | 43 | 1005.2 |
| 20260505115941 | 60 | 10 | 13.0 | 16.0 | 0.00 | 0.00 | 0.00 | 41 | 1005.5 |
| 20260505115438 | 61 | 326 | 11.0 | 17.0 | 0.00 | 0.00 | 0.00 | 39 | 1005.0 |
| 20260505114936 | 64 | 299 | 17.0 | 18.0 | 0.00 | 0.00 | 0.00 | 32 | 1004.6 |
| 20260505114431 | 64 | 285 | 20.0 | 22.0 | 0.00 | 0.00 | 0.00 | 32 | 1004.5 |
| 20260505113928 | 65 | 289 | 15.0 | 25.0 | 0.00 | 0.00 | 0.00 | 31 | 1004.6 |
| 20260505113425 | 64 | 296 | 22.0 | 24.0 | 0.00 | 0.00 | 0.00 | 31 | 1004.8 |
| 20260505112920 | 65 | 262 | 16.0 | 25.0 | 0.00 | 0.00 | 0.00 | 31 | 1004.5 |
| 20260505112418 | 63 | 335 | 12.0 | 18.0 | 0.00 | 0.00 | 0.00 | 32 | 1005.0 |
| 20260505111914 | 64 | 266 | 14.0 | 19.0 | 0.00 | 0.00 | 0.00 | 32 | 1004.1 |
| 20260505111409 | 64 | 258 | 18.0 | 23.0 | 0.00 | 0.00 | 0.00 | 32 | 1004.0 |
| 20260505110906 | 64 | 258 | 21.0 | 25.0 | 0.00 | 0.00 | 0.00 | 32 | 1003.9 |
| 20260505110403 | 64 | 258 | 16.0 | 25.0 | 0.00 | 0.00 | 0.00 | 32 | 1004.5 |
| 20260505101833 | 62 | 257 | 18.0 | 18.0 | 0.00 | 0.00 | 0.00 | 32 | 1004.0 |
| 20260505101328 | 62 | 252 | 15.0 | 22.0 | 0.00 | 0.00 | 0.00 | 33 | 1004.3 |
| 20260505100824 | 62 | 243 | 19.0 | 21.0 | 0.00 | 0.00 | 0.00 | 33 | 1004.5 |
| 20260505100321 | 64 | 255 | 21.0 | 26.0 | 0.00 | 0.00 | 0.00 | 31 | 1004.4 |
| 20260505095817 | 63 | 259 | 17.0 | 29.0 | 0.00 | 0.00 | 0.00 | 31 | 1004.5 |
| 20260505095315 | 61 | 248 | 17.0 | 25.0 | 0.00 | 0.00 | 0.00 | 33 | 1004.5 |
| 20260505094810 | 64 | 251 | 19.0 | 23.0 | 0.00 | 0.00 | 0.00 | 31 | 1004.3 |
| 20260505094307 | 64 | 250 | 16.0 | 22.0 | 0.00 | 0.00 | 0.00 | 31 | 1004.3 |
| 20260505093803 | 64 | 263 | 17.0 | 21.0 | 0.00 | 0.00 | 0.00 | 31 | 1004.5 |
| 20260505093301 | 64 | 257 | 18.0 | 22.0 | 0.00 | 0.00 | 0.00 | 30 | 1004.4 |
| 20260505092757 | 64 | 262 | 14.0 | 22.0 | 0.00 | 0.00 | 0.00 | 30 | 1004.4 |
| 20260505092256 | 64 | 259 | 16.0 | 22.0 | 0.00 | 0.00 | 0.00 | 30 | 1004.0 |
| 20260505091753 | 64 | 263 | 13.0 | 18.0 | 0.00 | 0.00 | 0.00 | 30 | 1004.4 |
| 20260505091250 | 64 | 263 | 16.0 | 18.0 | 0.00 | 0.00 | 0.00 | 29 | 1004.1 |
| 20260505090748 | 65 | 280 | 14.0 | 18.0 | 0.00 | 0.00 | 0.00 | 29 | 1003.9 |
| 20260505090246 | 65 | 272 | 15.0 | 19.0 | 0.00 | 0.00 | 0.00 | 29 | 1003.8 |
| 20260505085743 | 64 | 266 | 9.0 | 18.0 | 0.00 | 0.00 | 0.00 | 29 | 1004.0 |
| 20260505085241 | 64 | 273 | 12.0 | 17.0 | 0.00 | 0.00 | 0.00 | 29 | 1004.1 |
| 20260505084738 | 64 | 265 | 11.0 | 15.0 | 0.00 | 0.00 | 0.00 | 28 | 1004.3 |
| 20260505084238 | 65 | 253 | 12.0 | 17.0 | 0.00 | 0.00 | 0.00 | 28 | 1004.0 |
| 20260505083734 | 65 | 259 | 12.0 | 17.0 | 0.00 | 0.00 | 0.00 | 27 | 1004.0 |
| 20260505083230 | 66 | 260 | 14.0 | 19.0 | 0.00 | 0.00 | 0.00 | 27 | 1003.8 |
| 20260505082726 | 65 | 255 | 13.0 | 18.0 | 0.00 | 0.00 | 0.00 | 27 | 1004.1 |
| 20260505082224 | 65 | 256 | 13.0 | 18.0 | 0.00 | 0.00 | 0.00 | 27 | 1003.8 |
| 20260505081719 | 66 | 263 | 14.0 | 18.0 | 0.00 | 0.00 | 0.00 | 27 | 1004.0 |
| 20260505081217 | 65 | 253 | 13.0 | 17.0 | 0.00 | 0.00 | 0.00 | 27 | 1003.9 |
| 20260505080714 | 66 | 256 | 12.0 | 21.0 | 0.00 | 0.00 | 0.00 | 26 | 1003.6 |
| 20260505080210 | 66 | 271 | 13.0 | 18.0 | 0.00 | 0.00 | 0.00 | 27 | 1003.7 |
| 20260505075706 | 65 | 265 | 13.0 | 16.0 | 0.00 | 0.00 | 0.00 | 27 | 1003.8 |
| 20260505075203 | 65 | 256 | 16.0 | 18.0 | 0.00 | 0.00 | 0.00 | 27 | 1003.7 |
| 20260505074700 | 65 | 257 | 11.0 | 19.0 | 0.00 | 0.00 | 0.00 | 28 | 1003.6 |
| 20260505074157 | 65 | 266 | 11.0 | 17.0 | 0.00 | 0.00 | 0.00 | 28 | 1003.7 |
| 20260505073654 | 64 | 262 | 14.0 | 17.0 | 0.00 | 0.00 | 0.00 | 29 | 1004.0 |
| 20260505073153 | 64 | 261 | 12.0 | 18.0 | 0.00 | 0.00 | 0.00 | 29 | 1004.1 |
| 20260505072648 | 63 | 252 | 16.0 | 17.0 | 0.00 | 0.00 | 0.00 | 30 | 1003.9 |
| 20260505072145 | 63 | 248 | 13.0 | 16.0 | 0.00 | 0.00 | 0.00 | 30 | 1004.0 |
| 20260505071640 | 63 | 250 | 13.0 | 15.0 | 0.00 | 0.00 | 0.00 | 30 | 1003.9 |
| 20260505071138 | 63 | 247 | 15.0 | 16.0 | 0.00 | 0.00 | 0.00 | 30 | 1004.0 |
| 20260505070635 | 62 | 243 | 11.0 | 13.0 | 0.00 | 0.00 | 0.00 | 32 | 1004.0 |
| 20260505070132 | 62 | 246 | 9.0 | 10.0 | 0.00 | 0.00 | 0.00 | 31 | 1003.9 |
| 20260505065627 | 62 | 247 | 8.0 | 10.0 | 0.00 | 0.00 | 0.00 | 32 | 1003.8 |
| 20260505065124 | 63 | 255 | 8.0 | 9.0 | 0.00 | 0.00 | 0.00 | 31 | 1003.9 |
| 20260505064621 | 63 | 244 | 7.0 | 10.0 | 0.00 | 0.00 | 0.00 | 31 | 1003.9 |
| 20260505064120 | 64 | 250 | 7.0 | 9.0 | 0.00 | 0.00 | 0.00 | 30 | 1003.8 |
| 20260505063617 | 64 | 249 | 8.0 | 12.0 | 0.00 | 0.00 | 0.00 | 30 | 1004.0 |
| 20260505063112 | 65 | 251 | 9.0 | 14.0 | 0.00 | 0.00 | 0.00 | 28 | 1003.9 |
| 20260505062609 | 66 | 240 | 10.0 | 12.0 | 0.00 | 0.00 | 0.00 | 28 | 1003.8 |
| 20260505062106 | 66 | 240 | 10.0 | 14.0 | 0.00 | 0.00 | 0.00 | 27 | 1003.9 |
| 20260505061603 | 66 | 236 | 9.0 | 13.0 | 0.00 | 0.00 | 0.00 | 28 | 1003.9 |
| 20260505061102 | 65 | 239 | 10.0 | 13.0 | 0.00 | 0.00 | 0.00 | 28 | 1003.8 |
| 20260505060559 | 65 | 244 | 10.0 | 12.0 | 0.00 | 0.00 | 0.00 | 29 | 1003.9 |
| 20260505060055 | 65 | 248 | 11.0 | 13.0 | 0.00 | 0.00 | 0.00 | 29 | 1003.9 |
| 20260505055551 | 65 | 247 | 11.0 | 14.0 | 0.00 | 0.00 | 0.00 | 28 | 1004.0 |
| 20260505055048 | 66 | 243 | 13.0 | 15.0 | 0.00 | 0.00 | 0.00 | 27 | 1003.7 |
| 20260505054545 | 67 | 231 | 11.0 | 14.0 | 0.00 | 0.00 | 0.00 | 27 | 1004.0 |
| 20260505054043 | 67 | 230 | 11.0 | 14.0 | 0.00 | 0.00 | 0.00 | 26 | 1003.9 |
| 20260505053540 | 68 | 230 | 10.0 | 14.0 | 0.00 | 0.00 | 0.00 | 26 | 1003.9 |
| 20260505053036 | 68 | 226 | 9.0 | 15.0 | 0.00 | 0.00 | 0.00 | 25 | 1004.0 |
| 20260505052533 | 68 | 225 | 11.0 | 14.0 | 0.00 | 0.00 | 0.00 | 25 | 1004.1 |
| 20260505052031 | 68 | 234 | 11.0 | 12.0 | 0.00 | 0.00 | 0.00 | 25 | 1003.9 |
| 20260505051527 | 68 | 230 | 9.0 | 12.0 | 0.00 | 0.00 | 0.00 | 25 | 1004.3 |
| 20260505051026 | 69 | 228 | 9.0 | 13.0 | 0.00 | 0.00 | 0.00 | 24 | 1004.4 |
| 20260505050524 | 68 | 231 | 9.0 | 11.0 | 0.00 | 0.00 | 0.00 | 25 | 1003.9 |
| 20260505041451 | 70 | 246 | 14.0 | 20.0 | 0.00 | 0.00 | 0.00 | 24 | 1004.3 |
| 20260505040948 | 70 | 246 | 17.0 | 22.0 | 0.00 | 0.00 | 0.00 | 24 | 1004.3 |
| 20260505040446 | 70 | 249 | 13.0 | 19.0 | 0.00 | 0.00 | 0.00 | 24 | 1004.1 |
| 20260505035943 | 70 | 245 | 11.0 | 18.0 | 0.00 | 0.00 | 0.00 | 23 | 1004.3 |
| 20260505035439 | 70 | 247 | 13.0 | 19.0 | 0.00 | 0.00 | 0.00 | 24 | 1004.1 |
| 20260505034936 | 70 | 258 | 11.0 | 15.0 | 0.00 | 0.00 | 0.00 | 24 | 1004.1 |
| 20260505034432 | 71 | 245 | 11.0 | 16.0 | 0.00 | 0.00 | 0.00 | 23 | 1004.3 |
| 20260505033930 | 71 | 251 | 11.0 | 18.0 | 0.00 | 0.00 | 0.00 | 23 | 1004.1 |
| 20260505033426 | 71 | 245 | 16.0 | 19.0 | 0.00 | 0.00 | 0.00 | 23 | 1003.9 |
| 20260505032924 | 71 | 244 | 17.0 | 19.0 | 0.00 | 0.00 | 0.00 | 22 | 1004.1 |
| 20260505032421 | 72 | 238 | 15.0 | 19.0 | 0.00 | 0.00 | 0.00 | 22 | 1004.0 |
| 20260505031918 | 72 | 237 | 18.0 | 22.0 | 0.00 | 0.00 | 0.00 | 22 | 1004.1 |
| 20260505031415 | 71 | 237 | 14.0 | 19.0 | 0.00 | 0.00 | 0.00 | 22 | 1003.9 |
| 20260505030912 | 70 | 233 | 15.0 | 18.0 | 0.00 | 0.00 | 0.00 | 23 | 1004.1 |
| 20260505030408 | 70 | 225 | 14.0 | 17.0 | 0.00 | 0.00 | 0.00 | 23 | 1004.0 |
| 20260505025903 | 70 | 231 | 13.0 | 17.0 | 0.00 | 0.00 | 0.00 | 23 | 1003.8 |
| 20260505025401 | 70 | 234 | 12.0 | 16.0 | 0.00 | 0.00 | 0.00 | 24 | 1003.9 |
| 20260505024900 | 70 | 225 | 10.0 | 13.0 | 0.00 | 0.00 | 0.00 | 24 | 1004.0 |
| 20260505024357 | 70 | 227 | 11.0 | 16.0 | 0.00 | 0.00 | 0.00 | 24 | 1003.8 |
| 20260505023853 | 70 | 236 | 9.0 | 11.0 | 0.00 | 0.00 | 0.00 | 24 | 1003.6 |
| 20260505023351 | 70 | 240 | 10.0 | 12.0 | 0.00 | 0.00 | 0.00 | 24 | 1003.8 |
| 20260505022848 | 70 | 233 | 7.0 | 11.0 | 0.00 | 0.00 | 0.00 | 24 | 1003.6 |
| 20260505022345 | 70 | 231 | 8.0 | 10.0 | 0.00 | 0.00 | 0.00 | 24 | 1003.7 |
| 20260505021842 | 71 | 237 | 11.0 | 13.0 | 0.00 | 0.00 | 0.00 | 24 | 1003.7 |
| 20260505021338 | 71 | 230 | 11.0 | 12.0 | 0.00 | 0.00 | 0.00 | 24 | 1003.5 |
| 20260505020834 | 72 | 229 | 13.0 | 16.0 | 0.00 | 0.00 | 0.00 | 23 | 1003.6 |
| 20260505020330 | 72 | 235 | 9.0 | 15.0 | 0.00 | 0.00 | 0.00 | 24 | 1003.3 |
| 20260505015827 | 72 | 235 | 11.0 | 15.0 | 0.00 | 0.00 | 0.00 | 23 | 1003.5 |
| 20260505015324 | 73 | 235 | 14.0 | 20.0 | 0.00 | 0.00 | 0.00 | 23 | 1003.3 |
| 20260505014821 | 73 | 238 | 15.0 | 18.0 | 0.00 | 0.00 | 0.00 | 23 | 1003.1 |
| 20260505014318 | 73 | 234 | 17.0 | 19.0 | 0.00 | 0.00 | 0.00 | 23 | 1003.1 |
| 20260505013815 | 73 | 234 | 18.0 | 20.0 | 0.00 | 0.00 | 0.00 | 23 | 1003.2 |
| 20260505013312 | 74 | 246 | 13.0 | 20.0 | 0.00 | 0.00 | 0.00 | 23 | 1003.1 |
| 20260505012811 | 74 | 241 | 17.0 | 23.0 | 0.00 | 0.00 | 0.00 | 22 | 1003.1 |
| 20260505012308 | 74 | 238 | 17.0 | 24.0 | 0.00 | 0.00 | 0.00 | 22 | 1003.2 |
| 20260505011803 | 75 | 238 | 17.0 | 23.0 | 0.00 | 0.00 | 0.00 | 22 | 1003.1 |
| 20260505011301 | 75 | 235 | 20.0 | 24.0 | 0.00 | 0.00 | 0.00 | 22 | 1003.3 |
| 20260505010756 | 75 | 241 | 22.0 | 25.0 | 0.00 | 0.00 | 0.00 | 21 | 1003.5 |
| 20260505010253 | 75 | 243 | 16.0 | 21.0 | 0.00 | 0.00 | 0.00 | 22 | 1003.5 |
| 20260505005749 | 75 | 240 | 21.0 | 27.0 | 0.00 | 0.00 | 0.00 | 21 | 1003.6 |
| 20260505005246 | 75 | 242 | 22.0 | 27.0 | 0.00 | 0.00 | 0.00 | 21 | 1003.3 |
| 20260505004743 | 76 | 231 | 22.0 | 26.0 | 0.00 | 0.00 | 0.00 | 21 | 1003.5 |
| 20260505004239 | 76 | 240 | 24.0 | 28.0 | 0.00 | 0.00 | 0.00 | 21 | 1003.5 |
| 20260505003737 | 76 | 243 | 20.0 | 27.0 | 0.00 | 0.00 | 0.00 | 21 | 1003.3 |
| 20260505003234 | 76 | 239 | 22.0 | 30.0 | 0.00 | 0.00 | 0.00 | 21 | 1003.7 |
| 20260505002730 | 76 | 240 | 33.0 | 35.0 | 0.00 | 0.00 | 0.00 | 21 | 1003.6 |
| 20260505002228 | 77 | 238 | 27.0 | 32.0 | 0.00 | 0.00 | 0.00 | 21 | 1003.2 |
| 20260505001725 | 77 | 236 | 25.0 | 33.0 | 0.00 | 0.00 | 0.00 | 20 | 1003.7 |
| 20260505001223 | 77 | 251 | 24.0 | 35.0 | 0.00 | 0.00 | 0.00 | 20 | 1003.9 |
| 20260505000720 | 78 | 251 | 22.0 | 29.0 | 0.00 | 0.00 | 0.00 | 15 | 1003.7 |
| 20260505000218 | 78 | 251 | 20.0 | 30.0 | 0.00 | 0.00 | 0.00 | 14 | 1003.6 |
| 20260504235714 | 78 | 266 | 18.0 | 29.0 | 0.00 | 0.00 | 0.00 | 14 | 1003.6 |
| 20260504235210 | 78 | 255 | 27.0 | 32.0 | 0.00 | 0.00 | 0.00 | 13 | 1003.8 |
| 20260504234708 | 78 | 256 | 22.0 | 34.0 | 0.00 | 0.00 | 0.00 | 13 | 1003.8 |
| 20260504234204 | 78 | 266 | 18.0 | 29.0 | 0.00 | 0.00 | 0.00 | 13 | 1003.9 |
| 20260504233700 | 78 | 265 | 21.0 | 27.0 | 0.00 | 0.00 | 0.00 | 13 | 1003.9 |
| 20260504233156 | 78 | 247 | 27.0 | 36.0 | 0.00 | 0.00 | 0.00 | 13 | 1003.8 |
| 20260504232654 | 78 | 250 | 28.0 | 35.0 | 0.00 | 0.00 | 0.00 | 13 | 1003.9 |
| 20260504232151 | 78 | 260 | 27.0 | 32.0 | 0.00 | 0.00 | 0.00 | 13 | 1003.9 |
| 20260504231648 | 78 | 254 | 26.0 | 32.0 | 0.00 | 0.00 | 0.00 | 13 | 1004.1 |
| 20260504231144 | 78 | 241 | 32.0 | 38.0 | 0.00 | 0.00 | 0.00 | 13 | 1004.0 |
| 20260504230640 | 78 | 247 | 26.0 | 29.0 | 0.00 | 0.00 | 0.00 | 13 | 1003.8 |
| 20260504230139 | 78 | 254 | 21.0 | 31.0 | 0.00 | 0.00 | 0.00 | 13 | 1003.8 |
| 20260504225637 | 78 | 251 | 27.0 | 30.0 | 0.00 | 0.00 | 0.00 | 12 | 1003.7 |
| 20260504225133 | 78 | 258 | 29.0 | 35.0 | 0.00 | 0.00 | 0.00 | 12 | 1003.9 |
| 20260504224630 | 79 | 250 | 36.0 | 38.0 | 0.00 | 0.00 | 0.00 | 11 | 1004.0 |
| 20260504224126 | 79 | 262 | 21.0 | 30.0 | 0.00 | 0.00 | 0.00 | 13 | 1003.9 |
| 20260504223624 | 80 | 266 | 21.0 | 40.0 | 0.00 | 0.00 | 0.00 | 13 | 1004.0 |
| 20260504223119 | 80 | 263 | 20.0 | 31.0 | 0.00 | 0.00 | 0.00 | 13 | 1003.8 |